Location: Cuiry
(49.3858°N, 3.7708°E)
Time: 22:38:38
(UTC+00:00)

Meteor 1-16 Rocket - Pass Details

Date: 12 January 2026
Orbit: 789 x 905 km, 81.2° (Epoch: 7 February)

Event Time Altitude Azimuth Distance (km) Brightness Sun altitude
Rises 18:05:04 0° 348° (NNW) 3,299 7.3 -18.0°
Reaches altitude 10° 18:07:27 10° 349° (N) 2,364 6.5 -18.4°
Maximum altitude 18:12:46 84° 78° (ENE) 803 4.0 -19.3°
Drops below altitude 10° 18:18:07 10° 167° (SSE) 2,371 6.5 -20.1°
Sets 18:20:30 0° 168° (SSE) 3,310 7.3 -20.5°
